sat.trackr.live / text

‹ back to catalog

STARLINK-37799

NORAD 69317 · 2026-119X

PAYLOAD ACTIVE UNKNOWN

§ Identity

Operator
Country
US
Launch date
2026-05-30
Launch site
AFWTR
Launch vehicle
Mass (kg)
RCS (m²)

Purposes: comms

External: N2YO · Heavens-Above · Gunter

§ Orbital elements

Epoch: 2026-09-20T00:23:59.839584Z

Period
93.91 min
Inclination
97.2838°
Eccentricity
0.0001286
Mean motion
15.33453099 rev/d
Perigee alt
464.6 km
Apogee alt
466.4 km
Semi-major
6,843.7 km
B*
2.7130e-4
RAAN
287.8239°
Arg perigee
93.4728°
Mean anomaly
266.6662°
Rev number
1,734

§ Raw data

STARLINK-377991 69317U 26119X   26263.01666481  .00008696  00000+0  27130-3 0  99902 69317  97.2838 287.8239 0001286  93.4728 266.6662 15.33453099 17345

JSON: /api/v1/satellites/69317 · /tle

For live sub-satellite position, see the globe view (requires WebGL).

§ Visibility from observer

Set your observer location to see the next 7 days of passes ≥ 10°. The values pass through the URL so the page stays shareable.

No JS? Fill the form by hand. The geolocation button needs JavaScript.